Tracking 19847 objects as of 17-Sep-2019
HD Live streaming from Space Station
objects crossing your sky now

DELTA 1 R/B

Track DELTA 1 R/B now!
10-day predictions


NORAD ID: 515
Int'l Code: 1962-068B
Perigee: 1,334.6 km
Apogee: 7,417.5 km
Inclination: 47.5 °
Period: 184.8 minutes
Semi major axis: 10747 km
RCS: 0.4654 m2 (medium)
Launch date: December 13, 1962
Source: United States (US)
Launch site: AIR FORCE EASTERN TEST RANGE (AFETR)

Note: This is a ROCKET BODY
aabbcc
Your satellite tracking list
Your tracking list is empty




NASA's NSSDC Master Catalog

Two Line Element Set (TLE):
1   515U 62068B   19259.16619889 -.00000025 +00000-0 +00000-0 0  9995
2   515 047.5046 280.9833 2830062 161.7938 210.9368 07.79238675615609
Source of the keplerian elements: AFSPC